HNG7386 SBRJ-SBGR

Flight info

Callsign HNG7386
Flight time 0h 51m
Altitude 26000
Route EVKO2C ESORU UZ10 EDMUS EDMU2A
Aircraft C25C/M-VGDW/C

Departure

Time 2026-05-06 01:48
Airport Santos Dumont Airport (SBRJ)

Arrival

Time 2026-05-06 02:39
Airport São Paulo/Guarulhos–Governor André Franco Montoro International Airport (SBGR)
Time Latitude Longitude Altitude Speed Heading
2026-05-06 01:34 -22.90553 -43.16618 17 ft 0 kts 312°
2026-05-06 01:43 -22.90556 -43.16615 17 ft 1 kts 309°
2026-05-06 01:43 -22.90563 -43.16609 17 ft 2 kts 341°
2026-05-06 01:43 -22.90572 -43.16608 17 ft 0 kts 17°
2026-05-06 01:45 -22.90571 -43.16608 17 ft 4 kts 16°
2026-05-06 01:45 -22.90508 -43.16574 17 ft 11 kts 52°
2026-05-06 01:45 -22.90498 -43.16501 17 ft 7 kts 87°
2026-05-06 01:45 -22.90497 -43.16488 17 ft 0 kts 85°
2026-05-06 01:46 -22.90495 -43.16465 17 ft 6 kts 86°
2026-05-06 01:46 -22.90488 -43.16400 16 ft 12 kts 86°
2026-05-06 01:46 -22.90510 -43.16322 17 ft 11 kts 158°
2026-05-06 01:47 -22.90551 -43.16313 17 ft 0 kts 173°
2026-05-06 01:47 -22.90556 -43.16313 17 ft 7 kts 175°
2026-05-06 01:47 -22.90818 -43.16295 16 ft 87 kts 172°
2026-05-06 01:47 -22.91715 -43.16239 441 ft 144 kts 173°
2026-05-06 01:48 -22.92617 -43.15732 1612 ft 151 kts 130°
2026-05-06 01:48 -22.93418 -43.14889 2285 ft 176 kts 136°
2026-05-06 01:48 -22.94383 -43.13897 2691 ft 205 kts 135°
2026-05-06 01:48 -22.95482 -43.12760 3105 ft 230 kts 137°
2026-05-06 01:49 -22.96703 -43.11667 3974 ft 228 kts 142°
2026-05-06 01:49 -22.98006 -43.10622 4619 ft 240 kts 145°
2026-05-06 01:49 -22.99577 -43.10002 5252 ft 246 kts 178°
2026-05-06 01:49 -23.01253 -43.10302 6037 ft 248 kts 204°
2026-05-06 01:50 -23.02664 -43.11452 6535 ft 262 kts 220°
2026-05-06 01:50 -23.03984 -43.12798 7159 ft 265 kts 225°
2026-05-06 01:50 -23.04822 -43.14577 7760 ft 273 kts 260°
2026-05-06 01:50 -23.04769 -43.16652 8325 ft 281 kts 279°
2026-05-06 01:51 -23.04325 -43.18744 8855 ft 286 kts 284°
2026-05-06 01:51 -23.03775 -43.20834 9478 ft 289 kts 286°
2026-05-06 01:51 -23.03190 -43.22934 10080 ft 292 kts 287°
2026-05-06 01:51 -23.01921 -43.24235 10757 ft 264 kts 11°
2026-05-06 01:52 -23.00130 -43.23870 11491 ft 273 kts
2026-05-06 01:52 -22.98810 -43.24007 11226 ft 302 kts 343°
2026-05-06 01:52 -22.97115 -43.25288 11889 ft 300 kts 310°
2026-05-06 01:52 -22.95927 -43.27193 12356 ft 303 kts 301°
2026-05-06 01:53 -22.94827 -43.29125 12749 ft 309 kts 304°
2026-05-06 01:53 -22.93315 -43.30859 12775 ft 324 kts 320°
2026-05-06 01:53 -22.91580 -43.32497 12795 ft 338 kts 315°
2026-05-06 01:53 -22.89942 -43.35475 12880 ft 349 kts 302°
2026-05-06 01:54 -22.88911 -43.36781 13056 ft 349 kts 315°
2026-05-06 01:54 -22.87119 -43.38558 13321 ft 350 kts 319°
2026-05-06 01:54 -22.85265 -43.40274 13567 ft 351 kts 320°
2026-05-06 01:54 -22.83385 -43.41967 13808 ft 353 kts 321°
2026-05-06 01:55 -22.81479 -43.43653 14023 ft 354 kts 321°
2026-05-06 01:55 -22.79541 -43.45336 14050 ft 361 kts 322°
2026-05-06 01:55 -22.77553 -43.47049 14062 ft 367 kts 322°
2026-05-06 01:55 -22.75550 -43.48767 14194 ft 368 kts 322°
2026-05-06 01:56 -22.73549 -43.50503 14330 ft 368 kts 321°
2026-05-06 01:56 -22.71580 -43.52285 14466 ft 369 kts 320°
2026-05-06 01:56 -22.69620 -43.54094 14600 ft 369 kts 320°
2026-05-06 01:56 -22.67824 -43.56084 14704 ft 371 kts 307°
2026-05-06 01:57 -22.67097 -43.58723 14787 ft 373 kts 270°
2026-05-06 01:57 -22.67794 -43.61375 14905 ft 372 kts 246°
2026-05-06 01:57 -22.68909 -43.63921 15302 ft 360 kts 240°
2026-05-06 01:57 -22.70100 -43.66016 17116 ft 295 kts 234°
2026-05-06 01:58 -22.71336 -43.67644 18451 ft 276 kts 227°
2026-05-06 01:58 -22.72738 -43.69199 18450 ft 293 kts 224°
2026-05-06 01:58 -22.74070 -43.70729 19189 ft 282 kts 237°
2026-05-06 01:58 -22.74598 -43.72809 19196 ft 299 kts 271°
2026-05-06 01:59 -22.74284 -43.75093 19216 ft 313 kts 282°
2026-05-06 01:59 -22.73903 -43.77465 19229 ft 326 kts 269°
2026-05-06 01:59 -22.74317 -43.79920 19246 ft 337 kts 256°
2026-05-06 01:59 -22.74976 -43.82385 19261 ft 346 kts 252°
2026-05-06 02:00 -22.75806 -43.84877 19278 ft 354 kts 248°
2026-05-06 02:00 -22.76751 -43.87365 19283 ft 361 kts 247°
2026-05-06 02:00 -22.77695 -43.89902 19298 ft 366 kts 249°
2026-05-06 02:00 -22.78525 -43.92498 19300 ft 370 kts 252°
2026-05-06 02:01 -22.79283 -43.95182 19307 ft 374 kts 253°
2026-05-06 02:01 -22.80088 -43.97875 19323 ft 377 kts 251°
2026-05-06 02:01 -22.81020 -44.00541 19392 ft 378 kts 248°
2026-05-06 02:01 -22.82020 -44.03171 19472 ft 378 kts 248°
2026-05-06 02:02 -22.82966 -44.05836 19635 ft 376 kts 250°
2026-05-06 02:02 -22.83777 -44.08522 20005 ft 378 kts 253°
2026-05-06 02:02 -22.84551 -44.11279 20390 ft 386 kts 252°
2026-05-06 02:02 -22.85431 -44.14052 20776 ft 392 kts 249°
2026-05-06 02:03 -22.86462 -44.16814 21167 ft 398 kts 247°
2026-05-06 02:03 -22.87514 -44.19606 21563 ft 402 kts 248°
2026-05-06 02:03 -22.88456 -44.22472 21959 ft 406 kts 251°
2026-05-06 02:03 -22.89279 -44.25377 22357 ft 408 kts 253°
2026-05-06 02:04 -22.90110 -44.28333 22773 ft 410 kts 251°
2026-05-06 02:04 -22.91064 -44.31248 23190 ft 411 kts 248°
2026-05-06 02:04 -22.92132 -44.34127 23613 ft 412 kts 246°
2026-05-06 02:04 -22.93210 -44.37013 23996 ft 413 kts 248°
2026-05-06 02:05 -22.94177 -44.39951 24357 ft 413 kts 250°
2026-05-06 02:05 -22.95026 -44.42936 24717 ft 414 kts 252°
2026-05-06 02:05 -22.95873 -44.45929 25077 ft 414 kts 251°
2026-05-06 02:05 -22.96825 -44.48877 25455 ft 414 kts 248°
2026-05-06 02:06 -22.97851 -44.51757 25820 ft 414 kts 247°
2026-05-06 02:06 -22.98966 -44.54645 26121 ft 417 kts 246°
2026-05-06 02:06 -23.00023 -44.57597 26195 ft 423 kts 249°
2026-05-06 02:06 -23.00941 -44.60625 26210 ft 421 kts 251°
2026-05-06 02:07 -23.01754 -44.63673 26214 ft 419 kts 252°
2026-05-06 02:07 -23.02596 -44.66686 26217 ft 416 kts 251°
2026-05-06 02:07 -23.03490 -44.69676 26213 ft 415 kts 250°
2026-05-06 02:07 -23.04384 -44.72649 26216 ft 414 kts 251°
2026-05-06 02:08 -23.05108 -44.75663 26222 ft 414 kts 258°
2026-05-06 02:08 -23.05482 -44.78763 26222 ft 414 kts 262°
2026-05-06 02:08 -23.05731 -44.81880 26227 ft 413 kts 264°
2026-05-06 02:08 -23.05922 -44.84990 26229 ft 413 kts 264°
2026-05-06 02:09 -23.06085 -44.88101 26231 ft 413 kts 265°
2026-05-06 02:09 -23.06235 -44.91215 26233 ft 412 kts 265°
2026-05-06 02:09 -23.06378 -44.94324 26234 ft 412 kts 265°
2026-05-06 02:09 -23.06517 -44.97427 26255 ft 412 kts 265°
2026-05-06 02:10 -23.06654 -45.00539 26253 ft 411 kts 265°
2026-05-06 02:10 -23.06792 -45.03601 26254 ft 411 kts 264°
2026-05-06 02:10 -23.07239 -45.06660 26255 ft 408 kts 256°
2026-05-06 02:10 -23.07954 -45.09620 26239 ft 406 kts 247°
2026-05-06 02:11 -23.09342 -45.12294 26242 ft 404 kts 230°
2026-05-06 02:11 -23.11666 -45.13988 26044 ft 410 kts 204°
2026-05-06 02:11 -23.14128 -45.15535 25769 ft 415 kts 224°
2026-05-06 02:11 -23.15703 -45.18114 25416 ft 405 kts 246°
2026-05-06 02:12 -23.16325 -45.21038 25033 ft 391 kts 262°
2026-05-06 02:12 -23.16479 -45.23946 24646 ft 380 kts 267°
2026-05-06 02:12 -23.16516 -45.26777 24269 ft 370 kts 268°
2026-05-06 02:12 -23.16721 -45.29528 23895 ft 361 kts 257°
2026-05-06 02:13 -23.17479 -45.32103 23508 ft 354 kts 249°
2026-05-06 02:13 -23.18237 -45.34623 23141 ft 348 kts 255°
2026-05-06 02:13 -23.18692 -45.37150 22789 ft 343 kts 260°
2026-05-06 02:13 -23.19069 -45.39692 22445 ft 338 kts 259°
2026-05-06 02:14 -23.19558 -45.42174 22098 ft 335 kts 255°
2026-05-06 02:14 -23.20176 -45.44608 21755 ft 332 kts 253°
2026-05-06 02:14 -23.20844 -45.47005 21416 ft 329 kts 252°
2026-05-06 02:14 -23.21477 -45.49391 21081 ft 328 kts 255°
2026-05-06 02:15 -23.21968 -45.51812 20747 ft 327 kts 258°
2026-05-06 02:15 -23.22362 -45.54208 20417 ft 326 kts 259°
2026-05-06 02:15 -23.22843 -45.56643 20082 ft 325 kts 254°
2026-05-06 02:15 -23.23326 -45.58339 19840 ft 325 kts 251°
2026-05-06 02:16 -23.23986 -45.60309 19558 ft 324 kts 249°
2026-05-06 02:16 -23.24645 -45.62286 19275 ft 324 kts 251°
2026-05-06 02:16 -23.25301 -45.64628 18959 ft 324 kts 254°
2026-05-06 02:16 -23.25796 -45.66760 18665 ft 324 kts 256°
2026-05-06 02:17 -23.26342 -45.69135 18308 ft 324 kts 255°
2026-05-06 02:17 -23.26900 -45.71186 18020 ft 323 kts 251°
2026-05-06 02:17 -23.27628 -45.73496 17681 ft 321 kts 250°
2026-05-06 02:17 -23.28349 -45.75792 17356 ft 321 kts 251°
2026-05-06 02:18 -23.28980 -45.78115 17028 ft 320 kts 254°
2026-05-06 02:18 -23.29538 -45.80449 16708 ft 320 kts 255°
2026-05-06 02:18 -23.30114 -45.82791 16374 ft 319 kts 253°
2026-05-06 02:18 -23.30770 -45.85099 16049 ft 319 kts 251°
2026-05-06 02:19 -23.31479 -45.87389 15724 ft 319 kts 250°
2026-05-06 02:19 -23.32149 -45.89654 15398 ft 319 kts 252°
2026-05-06 02:19 -23.32758 -45.91989 15295 ft 312 kts 254°
2026-05-06 02:19 -23.33289 -45.94207 15269 ft 304 kts 255°
2026-05-06 02:20 -23.34294 -45.98560 15259 ft 290 kts 255°
2026-05-06 02:20 -23.34781 -46.00676 15252 ft 286 kts 255°
2026-05-06 02:20 -23.35259 -46.02759 15247 ft 282 kts 255°
2026-05-06 02:21 -23.35730 -46.04819 15247 ft 279 kts 255°
2026-05-06 02:21 -23.36375 -46.06781 15238 ft 275 kts 240°
2026-05-06 02:21 -23.37368 -46.08574 15161 ft 275 kts 239°
2026-05-06 02:21 -23.38084 -46.10509 15020 ft 280 kts 255°
2026-05-06 02:22 -23.38477 -46.12521 14729 ft 288 kts 256°
2026-05-06 02:22 -23.39002 -46.14514 14452 ft 294 kts 250°
2026-05-06 02:22 -23.39720 -46.16620 14165 ft 299 kts 249°
2026-05-06 02:22 -23.40402 -46.18779 13858 ft 304 kts 251°
2026-05-06 02:23 -23.40987 -46.21008 13533 ft 307 kts 254°
2026-05-06 02:23 -23.41526 -46.23267 13209 ft 309 kts 254°
2026-05-06 02:23 -23.42115 -46.25524 12888 ft 310 kts 252°
2026-05-06 02:23 -23.42782 -46.27732 12576 ft 312 kts 250°
2026-05-06 02:24 -23.43271 -46.30021 12249 ft 314 kts 269°
2026-05-06 02:24 -23.42654 -46.32285 11918 ft 316 kts 298°
2026-05-06 02:24 -23.41454 -46.34288 11586 ft 316 kts 306°
2026-05-06 02:24 -23.40126 -46.36204 11266 ft 317 kts 307°
2026-05-06 02:25 -23.38872 -46.38171 10953 ft 317 kts 302°
2026-05-06 02:25 -23.37783 -46.40217 10644 ft 307 kts 300°
2026-05-06 02:25 -23.36716 -46.42189 10394 ft 296 kts 302°
2026-05-06 02:25 -23.35594 -46.44000 10310 ft 282 kts 306°
2026-05-06 02:26 -23.34450 -46.45682 10281 ft 269 kts 307°
2026-05-06 02:26 -23.33391 -46.47313 10276 ft 259 kts 304°
2026-05-06 02:26 -23.32437 -46.48972 10281 ft 261 kts 302°
2026-05-06 02:26 -23.31482 -46.50689 10279 ft 268 kts 302°
2026-05-06 02:27 -23.30473 -46.52379 10275 ft 273 kts 304°
2026-05-06 02:27 -23.29382 -46.54098 10269 ft 277 kts 306°
2026-05-06 02:27 -23.28304 -46.55802 10271 ft 280 kts 304°
2026-05-06 02:27 -23.27251 -46.57548 10270 ft 283 kts 303°
2026-05-06 02:28 -23.26252 -46.59412 10265 ft 285 kts 292°
2026-05-06 02:28 -23.25747 -46.61412 10269 ft 287 kts 283°
2026-05-06 02:28 -23.25170 -46.63497 10266 ft 287 kts 291°
2026-05-06 02:28 -23.24398 -46.65502 10215 ft 290 kts 293°
2026-05-06 02:29 -23.23650 -46.67561 9949 ft 293 kts 290°
2026-05-06 02:29 -23.23330 -46.69727 9596 ft 295 kts 262°
2026-05-06 02:29 -23.23843 -46.71900 9292 ft 295 kts 253°
2026-05-06 02:29 -23.24310 -46.74035 9219 ft 287 kts 261°
2026-05-06 02:30 -23.24566 -46.76181 8969 ft 288 kts 263°
2026-05-06 02:30 -23.24860 -46.78312 8726 ft 288 kts 259°
2026-05-06 02:30 -23.25589 -46.80344 8435 ft 288 kts 230°
2026-05-06 02:30 -23.26982 -46.81855 8191 ft 287 kts 222°
2026-05-06 02:31 -23.28381 -46.83451 7945 ft 288 kts 229°
2026-05-06 02:31 -23.29783 -46.84933 7686 ft 286 kts 210°
2026-05-06 02:31 -23.31686 -46.85333 7402 ft 277 kts 172°
2026-05-06 02:31 -23.33500 -46.84758 7167 ft 266 kts 150°
2026-05-06 02:32 -23.34895 -46.83501 6924 ft 258 kts 129°
2026-05-06 02:32 -23.35842 -46.81878 6688 ft 252 kts 117°
2026-05-06 02:32 -23.36689 -46.80221 6452 ft 249 kts 121°
2026-05-06 02:32 -23.37689 -46.78698 6202 ft 244 kts 126°
2026-05-06 02:33 -23.38682 -46.77232 5971 ft 239 kts 123°
2026-05-06 02:33 -23.39292 -46.76239 5824 ft 236 kts 121°
2026-05-06 02:33 -23.41275 -46.72758 5565 ft 230 kts 121°
2026-05-06 02:34 -23.42170 -46.71324 5475 ft 229 kts 123°
2026-05-06 02:34 -23.43077 -46.69888 5384 ft 233 kts 122°
2026-05-06 02:34 -23.43994 -46.68409 5308 ft 237 kts 122°
2026-05-06 02:34 -23.44909 -46.66946 5213 ft 230 kts 123°
2026-05-06 02:35 -23.45807 -46.65537 5172 ft 221 kts 123°
2026-05-06 02:35 -23.46666 -46.64182 5150 ft 213 kts 123°
2026-05-06 02:35 -23.47332 -46.62816 5125 ft 195 kts 100°
2026-05-06 02:35 -23.47313 -46.61433 5127 ft 178 kts 81°
2026-05-06 02:36 -23.47002 -46.60180 5120 ft 166 kts 73°
2026-05-06 02:36 -23.46643 -46.58993 4995 ft 166 kts 73°
2026-05-06 02:36 -23.46308 -46.57776 4729 ft 172 kts 75°
2026-05-06 02:36 -23.46003 -46.56584 4430 ft 145 kts 75°
2026-05-06 02:37 -23.45750 -46.55633 4250 ft 120 kts 74°
2026-05-06 02:37 -23.45503 -46.54735 3779 ft 124 kts 74°
2026-05-06 02:37 -23.45274 -46.53875 3570 ft 110 kts 74°
2026-05-06 02:37 -23.45068 -46.53107 3534 ft 102 kts 75°
2026-05-06 02:38 -23.44896 -46.52333 3362 ft 109 kts 75°
2026-05-06 02:38 -23.44664 -46.51511 3139 ft 113 kts 71°
2026-05-06 02:38 -23.44505 -46.50982 3057 ft 110 kts 72°
2026-05-06 02:38 -23.44203 -46.49865 2746 ft 114 kts 74°
2026-05-06 02:39 -23.44053 -46.49323 2639 ft 112 kts 73°
2026-05-06 02:39 -23.43829 -46.48510 2473 ft 104 kts 74°
2026-05-06 02:39 -23.43649 -46.47849 2462 ft 79 kts 73°
2026-05-06 02:39 -23.43529 -46.47390 2460 ft 48 kts 76°
2026-05-06 02:40 -23.43571 -46.47275 2460 ft 12 kts 171°
2026-05-06 02:40 -23.43635 -46.47252 2462 ft 9 kts 164°
2026-05-06 02:40 -23.43676 -46.47286 2464 ft 8 kts 251°
2026-05-06 02:40 -23.43689 -46.47353 2462 ft 10 kts 265°
2026-05-06 02:41 -23.43714 -46.47426 2462 ft 11 kts 253°
2026-05-06 02:41 -23.43737 -46.47506 2465 ft 11 kts 252°
2026-05-06 02:41 -23.43772 -46.47637 2462 ft 27 kts 253°
2026-05-06 02:41 -23.43829 -46.47853 2460 ft 28 kts 254°
2026-05-06 02:42 -23.43869 -46.48000 2460 ft 15 kts 250°
2026-05-06 02:42 -23.43911 -46.48043 2458 ft 8 kts 182°
2026-05-06 02:42 -23.43961 -46.48070 2461 ft 9 kts 246°
2026-05-06 02:42 -23.43987 -46.48137 2456 ft 9 kts 247°
2026-05-06 02:43 -23.44005 -46.48202 2458 ft 8 kts 293°
2026-05-06 02:43 -23.43998 -46.48212 2458 ft 5 kts 314°
2026-05-06 02:43 -23.43943 -46.48188 2456 ft 16 kts 74°
2026-05-06 02:43 -23.43918 -46.48088 2456 ft 12 kts 72°
2026-05-06 02:44 -23.43940 -46.48053 2457 ft 0 kts 175°